Time,TemperatureF,DewpointF,PressureIn,WindDirection,WindDirectionDegrees,WindSpeedMPH,WindSpeedGustMPH,Humidity,HourlyPrecipIn,Conditions,Clouds,dailyrainin,SoftwareType,DateUTC
2013-04-01 00:00:00,40.1,27.3,29.97,SSW,204,0.0,0.0,60,0.00,OVC,OVC,0.00,WeatherDisplay:10.34,2013-04-01 04:00:00,
2013-04-01 00:02:00,39.9,27.5,29.97,SSW,204,0.0,0.0,61,0.00,OVC,OVC,0.00,WeatherDisplay:10.34,2013-04-01 04:02:00,
2013-04-01 00:04:00,39.9,27.5,29.97,SSW,204,0.0,0.0,61,0.00,OVC,OVC,0.00,WeatherDisplay:10.34,2013-04-01 04:04:00,
2013-04-01 00:09:00,39.9,27.9,29.97,SSW,204,0.0,0.0,62,0.00,OVC,OVC,0.00,WeatherDisplay:10.34,2013-04-01 04:09:00,
2013-04-01 00:11:00,39.7,27.8,29.97,SSW,204,0.0,0.0,62,0.00,OVC,OVC,0.00,WeatherDisplay:10.34,2013-04-01 04:11:00,
2013-04-01 00:15:00,39.7,27.8,29.94,SSW,204,0.0,0.0,62,0.00,OVC,OVC,0.00,WeatherDisplay:10.34,2013-04-01 04:15:00,
2013-04-01 00:20:00,39.7,28.2,29.94,SSW,204,0.0,0.0,63,0.00,OVC,OVC,0.00,WeatherDisplay:10.34,2013-04-01 04:20:00,
2013-04-01 00:25:00,39.6,28.4,29.94,SSW,204,0.0,0.0,64,0.00,OVC,OVC,0.00,WeatherDisplay:10.34,2013-04-01 04:25:00,
2013-04-01 00:30:00,39.4,29.3,29.94,SSW,209,3.0,7.0,67,0.00,OVC,OVC,0.00,WeatherDisplay:10.34,2013-04-01 04:30:00,
2013-04-01 00:35:00,39.2,29.9,29.94,ENE,71,3.0,12.0,69,0.00,OVC,OVC,0.00,WeatherDisplay:10.34,2013-04-01 04:35:00,
2013-04-01 00:40:00,39.2,30.6,29.94,SSE,167,4.0,9.0,71,0.00,OVC,OVC,0.00,WeatherDisplay:10.34,2013-04-01 04:40:00,
2013-04-01 00:45:00,39.2,30.9,29.94,SSE,157,5.0,7.0,72,0.00,OVC,OVC,0.00,WeatherDisplay:10.34,2013-04-01 04:45:00,
2013-04-01 00:50:00,39.2,31.3,29.94,South,175,4.0,7.0,73,0.00,OVC,OVC,0.00,WeatherDisplay:10.34,2013-04-01 04:50:00,
2013-04-01 00:55:00,39.2,31.3,29.94,South,175,0.0,0.0,73,0.00,OVC,OVC,0.00,WeatherDisplay:10.34,2013-04-01 04:55:00,
2013-04-01 01:00:00,39.0,31.4,29.93,WSW,245,4.0,15.0,74,0.00,OVC,OVC,0.00,WeatherDisplay:10.34,2013-04-01 05:00:00,
2013-04-01 01:05:00,38.8,31.3,29.93,SSE,165,3.0,5.0,74,0.00,OVC,OVC,0.00,WeatherDisplay:10.34,2013-04-01 05:05:00,
2013-04-01 01:10:00,38.8,31.3,29.93,SSE,165,0.0,0.0,74,0.00,OVC,OVC,0.00,WeatherDisplay:10.34,2013-04-01 05:10:00,
2013-04-01 01:15:00,38.8,31.3,29.93,SSE,165,0.0,0.0,74,0.00,OVC,OVC,0.00,WeatherDisplay:10.34,2013-04-01 05:15:00,
2013-04-01 01:20:00,38.8,31.3,29.93,SSE,165,0.0,0.0,74,0.00,OVC,OVC,0.00,WeatherDisplay:10.34,2013-04-01 05:20:00,
2013-04-01 01:25:00,38.8,31.3,29.93,SSE,165,0.0,0.0,74,0.00,OVC,OVC,0.00,WeatherDisplay:10.34,2013-04-01 05:25:00,
2013-04-01 01:30:00,38.8,31.3,29.93,SSE,165,0.0,0.0,74,0.00,OVC,OVC,0.00,WeatherDisplay:10.34,2013-04-01 05:30:00,
2013-04-01 01:35:00,38.7,31.4,29.93,ESE,121,4.0,7.0,75,0.00,OVC,OVC,0.00,WeatherDisplay:10.34,2013-04-01 05:35:00,
2013-04-01 01:40:00,38.7,31.4,29.93,East,90,0.0,3.0,75,0.00,OVC,OVC,0.00,WeatherDisplay:10.34,2013-04-01 05:40:00,
2013-04-01 01:45:00,38.7,31.7,29.90,East,90,0.0,0.0,76,0.00,OVC,OVC,0.00,WeatherDisplay:10.34,2013-04-01 05:45:00,
2013-04-01 01:50:00,38.7,31.7,29.90,East,90,0.0,3.0,76,0.00,OVC,OVC,0.00,WeatherDisplay:10.34,2013-04-01 05:50:00,
2013-04-01 01:55:00,38.7,31.7,29.90,East,90,0.0,0.0,76,0.00,OVC,OVC,0.00,WeatherDisplay:10.34,2013-04-01 05:55:00,
2013-04-01 02:00:00,38.5,31.6,29.90,NNW,331,0.0,3.0,76,0.00,OVC,OVC,0.00,WeatherDisplay:10.34,2013-04-01 06:00:00,
2013-04-01 02:05:00,38.5,31.6,29.90,SSE,163,0.0,0.0,76,0.00,OVC,OVC,0.00,WeatherDisplay:10.34,2013-04-01 06:05:00,
2013-04-01 02:10:00,38.5,31.9,29.90,SSE,164,0.0,3.0,77,0.00,OVC,OVC,0.00,WeatherDisplay:10.34,2013-04-01 06:10:00,
2013-04-01 02:15:00,38.5,31.9,29.90,SSE,164,0.0,0.0,77,0.00,OVC,OVC,0.00,WeatherDisplay:10.34,2013-04-01 06:15:00,
2013-04-01 02:20:00,38.5,31.9,29.90,SE,127,0.0,6.0,77,0.00,OVC,OVC,0.00,WeatherDisplay:10.34,2013-04-01 06:20:00,
2013-04-01 02:25:00,38.3,31.7,29.90,SE,127,0.0,3.0,77,0.00,OVC,OVC,0.00,WeatherDisplay:10.34,2013-04-01 06:25:00,
2013-04-01 02:30:00,38.1,31.5,29.87,SE,126,0.0,0.0,77,0.00,OVC,OVC,0.00,WeatherDisplay:10.34,2013-04-01 06:30:00,
2013-04-01 02:35:00,37.9,31.4,29.87,SE,126,0.0,0.0,77,0.00,OVC,OVC,0.00,WeatherDisplay:10.34,2013-04-01 06:35:00,
2013-04-01 02:40:00,37.9,31.4,29.87,SE,126,0.0,0.0,77,0.00,OVC,OVC,0.00,WeatherDisplay:10.34,2013-04-01 06:40:00,
2013-04-01 02:45:00,37.9,31.7,29.87,SE,127,0.0,0.0,78,0.00,OVC,OVC,0.00,WeatherDisplay:10.34,2013-04-01 06:45:00,
2013-04-01 02:50:00,37.9,31.7,29.87,SE,127,0.0,0.0,78,0.00,OVC,OVC,0.00,WeatherDisplay:10.34,2013-04-01 06:50:00,
2013-04-01 02:56:00,37.9,31.7,29.87,SE,127,0.0,0.0,78,0.00,OVC,OVC,0.00,WeatherDisplay:10.34,2013-04-01 06:56:00,
2013-04-01 03:01:00,37.9,31.7,29.84,SE,126,0.0,0.0,78,0.00,OVC,OVC,0.00,WeatherDisplay:10.34,2013-04-01 07:01:00,
2013-04-01 03:06:00,37.9,31.7,29.84,SE,126,0.0,0.0,78,0.00,OVC,OVC,0.00,WeatherDisplay:10.34,2013-04-01 07:06:00,
2013-04-01 03:11:00,37.9,31.7,29.84,SE,127,0.0,0.0,78,0.00,OVC,OVC,0.00,WeatherDisplay:10.34,2013-04-01 07:11:00,
2013-04-01 03:16:00,37.9,31.7,29.84,ESE,121,0.0,3.0,78,0.00,OVC,OVC,0.00,WeatherDisplay:10.34,2013-04-01 07:16:00,
2013-04-01 03:21:00,37.6,31.3,29.84,ESE,118,0.0,0.0,78,0.00,OVC,OVC,0.00,WeatherDisplay:10.34,2013-04-01 07:21:00,
2013-04-01 03:27:00,37.4,31.2,29.84,ESE,109,0.0,2.0,78,0.00,OVC,OVC,0.00,WeatherDisplay:10.34,2013-04-01 07:27:00,
2013-04-01 03:32:00,37.4,31.5,29.81,ESE,109,0.0,0.0,79,0.00,OVC,OVC,0.00,WeatherDisplay:10.34,2013-04-01 07:32:00,
2013-04-01 03:37:00,37.2,31.3,29.81,East,79,3.0,5.0,79,0.00,OVC,OVC,0.00,WeatherDisplay:10.34,2013-04-01 07:37:00,
2013-04-01 03:42:00,37.2,31.3,29.81,ENE,66,4.0,6.0,79,0.00,OVC,OVC,0.00,WeatherDisplay:10.34,2013-04-01 07:42:00,
2013-04-01 03:47:00,37.2,31.6,29.81,NE,53,3.0,3.0,80,0.00,OVC,OVC,0.00,WeatherDisplay:10.34,2013-04-01 07:47:00,
2013-04-01 03:52:00,37.2,31.6,29.81,NE,52,3.0,3.0,80,0.00,OVC,OVC,0.00,WeatherDisplay:10.34,2013-04-01 07:52:00,
2013-04-01 03:57:00,37.0,31.4,29.81,East,89,3.0,3.0,80,0.00,OVC,OVC,0.00,WeatherDisplay:10.34,2013-04-01 07:57:00,
2013-04-01 04:03:00,36.9,31.3,29.78,ENE,72,0.0,3.0,80,0.00,OVC,OVC,0.00,WeatherDisplay:10.34,2013-04-01 08:03:00,
2013-04-01 04:08:00,36.9,31.6,29.78,ENE,69,3.0,3.0,81,0.00,OVC,OVC,0.00,WeatherDisplay:10.34,2013-04-01 08:08:00,
2013-04-01 04:13:00,36.7,31.4,29.78,ENE,59,3.0,6.0,81,0.00,OVC,OVC,0.00,WeatherDisplay:10.34,2013-04-01 08:13:00,
2013-04-01 04:18:00,36.5,31.5,29.78,NE,38,3.0,3.0,82,0.00,OVC,OVC,0.00,WeatherDisplay:10.34,2013-04-01 08:18:00,
2013-04-01 04:24:00,36.3,31.7,29.78,NNE,19,0.0,3.0,83,0.00,OVC,OVC,0.00,WeatherDisplay:10.34,2013-04-01 08:24:00,
2013-04-01 04:29:00,36.1,31.5,29.78,NNE,21,0.0,3.0,83,0.00,OVC,OVC,0.00,WeatherDisplay:10.34,2013-04-01 08:29:00,
2013-04-01 04:34:00,36.1,31.5,29.78,NE,38,0.0,3.0,83,0.00,OVC,OVC,0.00,WeatherDisplay:10.34,2013-04-01 08:34:00,
2013-04-01 04:39:00,36.0,31.3,29.78,NE,38,0.0,2.0,83,0.00,OVC,OVC,0.00,WeatherDisplay:10.34,2013-04-01 08:39:00,
2013-04-01 04:45:00,35.8,31.1,29.78,NE,45,4.0,5.0,83,0.00,OVC,OVC,0.00,WeatherDisplay:10.34,2013-04-01 08:45:00,
2013-04-01 04:50:00,35.8,31.1,29.78,NNE,21,4.0,7.0,83,0.00,OVC,OVC,0.00,WeatherDisplay:10.34,2013-04-01 08:50:00,
2013-04-01 04:55:00,35.8,31.4,29.78,NNE,33,3.0,6.0,84,0.00,OVC,OVC,0.00,WeatherDisplay:10.34,2013-04-01 08:55:00,
2013-04-01 05:01:00,35.8,31.4,29.78,NNW,342,5.0,7.0,84,0.00,OVC,OVC,0.00,WeatherDisplay:10.34,2013-04-01 09:01:00,
2013-04-01 05:07:00,35.6,31.2,29.78,NE,35,4.0,5.0,84,0.00,OVC,OVC,0.00,WeatherDisplay:10.34,2013-04-01 09:07:00,
2013-04-01 05:12:00,35.4,31.1,29.79,NNE,25,4.0,9.0,84,0.00,OVC,OVC,0.00,WeatherDisplay:10.34,2013-04-01 09:12:00,
2013-04-01 05:17:00,35.4,30.8,29.76,NE,46,4.0,6.0,83,0.00,OVC,OVC,0.00,WeatherDisplay:10.34,2013-04-01 09:17:00,
2013-04-01 05:23:00,35.1,30.4,29.76,NE,56,4.0,9.0,83,0.00,OVC,OVC,0.00,WeatherDisplay:10.34,2013-04-01 09:23:00,
2013-04-01 05:28:00,35.1,30.4,29.76,NNE,28,5.0,8.0,83,0.00,OVC,OVC,0.00,WeatherDisplay:10.34,2013-04-01 09:28:00,
2013-04-01 05:33:00,35.1,30.4,29.76,North,351,5.0,12.0,83,0.00,OVC,OVC,0.00,WeatherDisplay:10.34,2013-04-01 09:33:00,
2013-04-01 05:38:00,35.1,30.4,29.76,NE,42,5.0,7.0,83,0.00,OVC,OVC,0.00,WeatherDisplay:10.34,2013-04-01 09:38:00,
2013-04-01 05:43:00,34.9,30.2,29.76,NNE,28,4.0,8.0,83,0.00,OVC,OVC,0.00,WeatherDisplay:10.34,2013-04-01 09:43:00,
2013-04-01 05:48:00,34.9,30.2,29.76,NNE,22,3.0,8.0,83,0.00,OVC,OVC,0.00,WeatherDisplay:10.34,2013-04-01 09:48:00,
2013-04-01 05:53:00,34.7,30.1,29.76,NNE,22,4.0,6.0,83,0.00,OVC,OVC,0.00,WeatherDisplay:10.34,2013-04-01 09:53:00,
2013-04-01 05:58:00,34.9,30.2,29.76,NNE,28,3.0,6.0,83,0.00,OVC,OVC,0.00,WeatherDisplay:10.34,2013-04-01 09:58:00,
2013-04-01 06:03:00,34.9,30.5,29.76,NW,324,3.0,5.0,84,0.00,OVC,OVC,0.00,WeatherDisplay:10.34,2013-04-01 10:03:00,
2013-04-01 06:08:00,34.9,30.5,29.76,North,3,3.0,5.0,84,0.00,OVC,OVC,0.00,WeatherDisplay:10.34,2013-04-01 10:08:00,
2013-04-01 06:13:00,34.9,30.5,29.76,NNE,13,3.0,3.0,84,0.00,OVC,OVC,0.00,WeatherDisplay:10.34,2013-04-01 10:13:00,
2013-04-01 06:18:00,34.9,30.5,29.76,NE,53,4.0,4.0,84,0.00,OVC,OVC,0.00,WeatherDisplay:10.34,2013-04-01 10:18:00,
2013-04-01 06:23:00,34.9,30.5,29.76,NNE,31,4.0,7.0,84,0.00,OVC,OVC,0.00,WeatherDisplay:10.34,2013-04-01 10:23:00,
2013-04-01 06:29:00,35.1,30.7,29.76,North,351,0.0,3.0,84,0.00,OVC,OVC,0.00,WeatherDisplay:10.34,2013-04-01 10:29:00,
2013-04-01 06:34:00,35.1,30.7,29.76,NW,319,4.0,7.0,84,0.00,OVC,OVC,0.00,WeatherDisplay:10.34,2013-04-01 10:34:00,
2013-04-01 06:39:00,35.1,30.7,29.76,NE,51,3.0,6.0,84,0.00,OVC,OVC,0.00,WeatherDisplay:10.34,2013-04-01 10:39:00,
2013-04-01 06:44:00,35.1,30.7,29.76,NNE,15,4.0,5.0,84,0.00,OVC,OVC,0.00,WeatherDisplay:10.34,2013-04-01 10:44:00,
2013-04-01 06:49:00,35.1,30.7,29.76,NNW,344,5.0,10.0,84,0.00,OVC,OVC,0.00,WeatherDisplay:10.34,2013-04-01 10:49:00,
2013-04-01 06:54:00,35.1,31.0,29.76,NNE,30,3.0,6.0,85,0.00,OVC,OVC,0.00,WeatherDisplay:10.34,2013-04-01 10:54:00,
2013-04-01 06:59:00,35.2,31.2,29.76,North,11,3.0,6.0,85,0.00,OVC,OVC,0.00,WeatherDisplay:10.34,2013-04-01 10:59:00,
2013-04-01 07:04:00,35.2,31.2,29.76,NNE,23,6.0,12.0,85,0.00,OVC,OVC,0.00,WeatherDisplay:10.34,2013-04-01 11:04:00,
2013-04-01 07:09:00,35.4,31.4,29.76,NNE,23,3.0,7.0,85,0.00,OVC,OVC,0.00,WeatherDisplay:10.34,2013-04-01 11:09:00,
2013-04-01 07:14:00,35.4,31.4,29.76,NNE,23,3.0,5.0,85,0.00,OVC,OVC,0.00,WeatherDisplay:10.34,2013-04-01 11:14:00,
2013-04-01 07:19:00,35.4,31.4,29.76,North,3,3.0,6.0,85,0.00,OVC,OVC,0.00,WeatherDisplay:10.34,2013-04-01 11:19:00,
2013-04-01 07:24:00,35.6,31.5,29.76,North,2,3.0,7.0,85,0.00,OVC,OVC,0.00,WeatherDisplay:10.34,2013-04-01 11:24:00,
2013-04-01 07:29:00,35.8,31.7,29.76,NNW,341,3.0,5.0,85,0.00,OVC,OVC,0.00,WeatherDisplay:10.34,2013-04-01 11:29:00,
2013-04-01 07:34:00,36.0,31.9,29.76,North,351,0.0,0.0,85,0.00,OVC,OVC,0.00,WeatherDisplay:10.34,2013-04-01 11:34:00,
2013-04-01 07:39:00,36.1,32.1,29.76,North,0,0.0,2.0,85,0.00,OVC,OVC,0.00,WeatherDisplay:10.34,2013-04-01 11:39:00,
2013-04-01 07:44:00,36.1,32.1,29.76,NNE,17,0.0,7.0,85,0.00,OVC,OVC,0.00,WeatherDisplay:10.34,2013-04-01 11:44:00,
2013-04-01 07:49:00,36.3,32.2,29.76,NNE,26,0.0,3.0,85,0.00,OVC,OVC,0.00,WeatherDisplay:10.34,2013-04-01 11:49:00,
2013-04-01 07:54:00,36.3,32.2,29.76,North,4,0.0,3.0,85,0.00,OVC,OVC,0.00,WeatherDisplay:10.34,2013-04-01 11:54:00,
2013-04-01 07:59:00,36.5,32.7,29.76,North,351,3.0,5.0,86,0.00,OVC,OVC,0.00,WeatherDisplay:10.34,2013-04-01 11:59:00,
2013-04-01 08:04:00,36.5,32.4,29.79,North,3,3.0,6.0,85,0.00,OVC,OVC,0.00,WeatherDisplay:10.34,2013-04-01 12:04:00,
2013-04-01 08:09:00,36.5,32.7,29.80,North,3,0.0,2.0,86,0.00,OVC,OVC,0.00,WeatherDisplay:10.34,2013-04-01 12:09:00,
2013-04-01 08:14:00,36.7,32.6,29.79,North,2,0.0,0.0,85,0.00,OVC,OVC,0.00,WeatherDisplay:10.34,2013-04-01 12:14:00,
2013-04-01 08:19:00,36.7,32.6,29.76,North,8,0.0,0.0,85,0.00,OVC,OVC,0.00,WeatherDisplay:10.34,2013-04-01 12:19:00,
2013-04-01 08:24:00,37.0,33.2,29.76,North,8,0.0,0.0,86,0.00,OVC,OVC,0.00,WeatherDisplay:10.34,2013-04-01 12:24:00,
2013-04-01 08:29:00,37.2,33.4,29.76,North,8,0.0,0.0,86,0.00,OVC,OVC,0.00,WeatherDisplay:10.34,2013-04-01 12:29:00,
2013-04-01 08:34:00,37.4,33.6,29.76,North,8,0.0,0.0,86,0.00,OVC,OVC,0.00,WeatherDisplay:10.34,2013-04-01 12:34:00,
2013-04-01 08:39:00,37.6,33.8,29.76,North,8,0.0,2.0,86,0.00,OVC,OVC,0.00,WeatherDisplay:10.34,2013-04-01 12:39:00,
2013-04-01 08:44:00,37.9,34.1,29.76,North,8,0.0,0.0,86,0.00,OVC,OVC,0.00,WeatherDisplay:10.34,2013-04-01 12:44:00,
2013-04-01 08:49:00,38.1,34.3,29.76,NW,323,3.0,3.0,86,0.00,OVC,OVC,0.00,WeatherDisplay:10.34,2013-04-01 12:49:00,
2013-04-01 08:54:00,38.5,34.7,29.76,NNE,25,0.0,6.0,86,0.00,OVC,OVC,0.00,WeatherDisplay:10.34,2013-04-01 12:54:00,
2013-04-01 08:59:00,38.7,34.5,29.76,NNE,25,0.0,0.0,85,0.00,OVC,OVC,0.00,WeatherDisplay:10.34,2013-04-01 12:59:00,
2013-04-01 09:04:00,38.8,34.7,29.76,NNE,25,0.0,0.0,85,0.00,OVC,OVC,0.00,WeatherDisplay:10.34,2013-04-01 13:04:00,
2013-04-01 09:09:00,38.8,34.7,29.76,North,10,0.0,2.0,85,0.00,OVC,OVC,0.00,WeatherDisplay:10.34,2013-04-01 13:09:00,
2013-04-01 09:14:00,39.0,34.9,29.76,North,10,0.0,3.0,85,0.00,OVC,OVC,0.00,WeatherDisplay:10.34,2013-04-01 13:14:00,
2013-04-01 09:19:00,39.4,35.2,29.76,North,10,0.0,0.0,85,0.00,OVC,OVC,0.00,WeatherDisplay:10.34,2013-04-01 13:19:00,
2013-04-01 09:24:00,39.6,35.4,29.76,North,10,0.0,0.0,85,0.00,OVC,OVC,0.00,WeatherDisplay:10.34,2013-04-01 13:24:00,
2013-04-01 09:29:00,39.7,35.6,29.76,North,10,0.0,0.0,85,0.00,OVC,OVC,0.00,WeatherDisplay:10.34,2013-04-01 13:29:00,
2013-04-01 09:34:00,39.9,35.8,29.73,North,10,0.0,0.0,85,0.00,OVC,OVC,0.00,WeatherDisplay:10.34,2013-04-01 13:34:00,
2013-04-01 09:39:00,39.9,35.8,29.73,North,10,0.0,0.0,85,0.00,OVC,OVC,0.00,WeatherDisplay:10.34,2013-04-01 13:39:00,
2013-04-01 09:44:00,40.3,35.8,29.73,SW,234,0.0,3.0,84,0.00,OVC,OVC,0.00,WeatherDisplay:10.34,2013-04-01 13:44:00,
2013-04-01 09:49:00,40.6,36.2,29.73,WSW,247,3.0,3.0,84,0.00,OVC,OVC,0.00,WeatherDisplay:10.34,2013-04-01 13:49:00,
2013-04-01 09:54:00,40.8,36.4,29.73,NNW,341,3.0,5.0,84,0.00,OVC,OVC,0.00,WeatherDisplay:10.34,2013-04-01 13:54:00,
2013-04-01 09:59:00,41.0,36.2,29.73,West,268,3.0,8.0,83,0.00,OVC,OVC,0.00,WeatherDisplay:10.34,2013-04-01 13:59:00,
2013-04-01 10:04:00,41.0,35.6,29.73,WSW,245,3.0,7.0,81,0.00,BKN,BKN,0.00,WeatherDisplay:10.34,2013-04-01 14:04:00,
2013-04-01 10:09:00,40.8,35.1,29.73,NNW,338,3.0,6.0,80,0.00,BKN,BKN,0.00,WeatherDisplay:10.34,2013-04-01 14:09:00,
2013-04-01 10:14:00,40.6,34.6,29.73,SW,234,3.0,6.0,79,0.00,BKN,BKN,0.00,WeatherDisplay:10.34,2013-04-01 14:14:00,
2013-04-01 10:19:00,40.8,34.8,29.73,West,278,3.0,5.0,79,0.00,BKN,BKN,0.00,WeatherDisplay:10.34,2013-04-01 14:19:00,
2013-04-01 10:24:00,40.8,34.5,29.73,NNW,332,0.0,3.0,78,0.00,BKN,BKN,0.00,WeatherDisplay:10.34,2013-04-01 14:24:00,
2013-04-01 10:29:00,41.0,34.7,29.73,West,281,4.0,8.0,78,0.00,BKN,BKN,0.00,WeatherDisplay:10.34,2013-04-01 14:29:00,
2013-04-01 10:34:00,41.2,34.8,29.73,NNW,329,3.0,7.0,78,0.00,BKN,BKN,0.00,WeatherDisplay:10.34,2013-04-01 14:34:00,
2013-04-01 10:39:00,41.4,35.0,29.73,North,0,0.0,3.0,78,0.00,BKN,BKN,0.00,WeatherDisplay:10.34,2013-04-01 14:39:00,
2013-04-01 10:44:00,41.5,35.2,29.73,NNW,344,3.0,5.0,78,0.00,BKN,BKN,0.00,WeatherDisplay:10.34,2013-04-01 14:44:00,
2013-04-01 10:49:00,41.5,34.9,29.73,West,269,3.0,6.0,77,0.00,BKN,BKN,0.00,WeatherDisplay:10.34,2013-04-01 14:49:00,
2013-04-01 10:54:00,41.4,34.0,29.73,WSW,237,4.0,7.0,75,0.00,BKN,BKN,0.00,WeatherDisplay:10.34,2013-04-01 14:54:00,
2013-04-01 10:59:00,41.4,34.0,29.73,West,271,4.0,6.0,75,0.00,BKN,BKN,0.00,WeatherDisplay:10.34,2013-04-01 14:59:00,
2013-04-01 11:04:00,41.5,34.2,29.73,NW,305,5.0,9.0,75,0.00,SCT,SCT,0.00,WeatherDisplay:10.34,2013-04-01 15:04:00,
2013-04-01 11:09:00,42.1,34.7,29.73,West,278,0.0,3.0,75,0.00,SCT,SCT,0.00,WeatherDisplay:10.34,2013-04-01 15:09:00,
2013-04-01 11:14:00,42.4,34.7,29.73,North,1,4.0,7.0,74,0.00,SCT,SCT,0.00,WeatherDisplay:10.34,2013-04-01 15:14:00,
2013-04-01 11:19:00,42.8,34.7,29.73,NNE,25,3.0,6.0,73,0.00,SCT,SCT,0.00,WeatherDisplay:10.34,2013-04-01 15:19:00,
2013-04-01 11:24:00,43.0,34.6,29.73,SSW,201,3.0,3.0,72,0.00,SCT,SCT,0.00,WeatherDisplay:10.34,2013-04-01 15:24:00,
2013-04-01 11:29:00,43.2,34.0,29.73,North,351,5.0,6.0,70,0.00,SCT,SCT,0.00,WeatherDisplay:10.34,2013-04-01 15:29:00,
2013-04-01 11:34:00,43.5,34.4,29.73,SSE,166,3.0,7.0,70,0.00,SCT,SCT,0.00,WeatherDisplay:10.34,2013-04-01 15:34:00,
2013-04-01 11:39:00,43.7,33.5,29.73,NNE,14,5.0,7.0,67,0.00,SCT,SCT,0.00,WeatherDisplay:10.34,2013-04-01 15:39:00,
2013-04-01 11:44:00,44.1,33.0,29.73,SSW,201,8.0,12.0,65,0.00,SCT,SCT,0.00,WeatherDisplay:10.34,2013-04-01 15:44:00,
2013-04-01 11:49:00,44.2,32.8,29.73,West,276,5.0,6.0,64,0.00,SCT,SCT,0.00,WeatherDisplay:10.34,2013-04-01 15:49:00,
2013-04-01 11:54:00,44.8,33.3,29.73,WNW,282,5.0,13.0,64,0.00,SCT,SCT,0.00,WeatherDisplay:10.34,2013-04-01 15:54:00,
2013-04-01 11:59:00,44.8,31.7,29.73,NNE,24,8.0,12.0,60,0.00,SCT,SCT,0.00,WeatherDisplay:10.34,2013-04-01 15:59:00,
2013-04-01 12:04:00,45.1,32.1,29.72,NNE,15,7.0,10.0,60,0.00,FEW,FEW,0.00,WeatherDisplay:10.34,2013-04-01 16:04:00,
2013-04-01 12:09:00,45.5,31.6,29.72,West,269,4.0,7.0,58,0.00,FEW,FEW,0.00,WeatherDisplay:10.34,2013-04-01 16:09:00,
2013-04-01 12:14:00,45.5,31.6,29.72,South,173,7.0,15.0,58,0.00,FEW,FEW,0.00,WeatherDisplay:10.34,2013-04-01 16:14:00,
2013-04-01 12:19:00,45.3,31.4,29.72,North,0,5.0,9.0,58,0.00,FEW,FEW,0.00,WeatherDisplay:10.34,2013-04-01 16:19:00,
2013-04-01 12:24:00,45.3,31.8,29.73,South,188,7.0,9.0,59,0.00,FEW,FEW,0.00,WeatherDisplay:10.34,2013-04-01 16:24:00,
2013-04-01 12:29:00,45.9,31.5,29.72,SW,235,7.0,16.0,57,0.00,FEW,FEW,0.00,WeatherDisplay:10.34,2013-04-01 16:29:00,
2013-04-01 12:34:00,45.9,31.0,29.69,SW,215,7.0,18.0,56,0.00,FEW,FEW,0.00,WeatherDisplay:10.34,2013-04-01 16:34:00,
2013-04-01 12:39:00,46.0,31.2,29.69,North,9,9.0,16.0,56,0.00,FEW,FEW,0.00,WeatherDisplay:10.34,2013-04-01 16:39:00,
2013-04-01 12:44:00,46.4,31.1,29.69,SW,234,4.0,9.0,55,0.00,FEW,FEW,0.00,WeatherDisplay:10.34,2013-04-01 16:44:00,
2013-04-01 12:49:00,46.8,31.0,29.69,WSW,253,5.0,9.0,54,0.00,FEW,FEW,0.00,WeatherDisplay:10.34,2013-04-01 16:49:00,
2013-04-01 12:54:00,47.1,30.9,29.69,WSW,254,7.0,13.0,53,0.00,FEW,FEW,0.00,WeatherDisplay:10.34,2013-04-01 16:54:00,
2013-04-01 12:59:00,47.3,30.5,29.69,NNE,18,5.0,14.0,52,0.00,FEW,FEW,0.00,WeatherDisplay:10.34,2013-04-01 16:59:00,
2013-04-01 13:04:00,47.5,30.2,29.69,SSW,203,4.0,9.0,51,0.00,OVC,OVC,0.00,WeatherDisplay:10.34,2013-04-01 17:04:00,
2013-04-01 13:09:00,47.7,30.4,29.69,WNW,285,7.0,12.0,51,0.00,OVC,OVC,0.00,WeatherDisplay:10.34,2013-04-01 17:09:00,
2013-04-01 13:14:00,47.8,30.1,29.69,NNE,28,5.0,10.0,50,0.00,OVC,OVC,0.00,WeatherDisplay:10.34,2013-04-01 17:14:00,
2013-04-01 13:19:00,47.8,30.6,29.69,West,272,4.0,6.0,51,0.00,OVC,OVC,0.00,WeatherDisplay:10.34,2013-04-01 17:19:00,
2013-04-01 13:24:00,48.0,30.7,29.69,North,0,4.0,7.0,51,0.00,OVC,OVC,0.00,WeatherDisplay:10.34,2013-04-01 17:24:00,
2013-04-01 13:29:00,48.6,30.7,29.69,WSW,255,5.0,7.0,50,0.00,OVC,OVC,0.00,WeatherDisplay:10.34,2013-04-01 17:29:00,
2013-04-01 13:35:00,48.7,30.4,29.66,North,5,6.0,12.0,49,0.00,OVC,OVC,0.00,WeatherDisplay:10.34,2013-04-01 17:35:00,
2013-04-01 13:40:00,48.9,30.1,29.66,West,279,3.0,13.0,48,0.00,OVC,OVC,0.00,WeatherDisplay:10.34,2013-04-01 17:40:00,
2013-04-01 13:45:00,49.1,29.7,29.66,WSW,244,3.0,3.0,47,0.00,OVC,OVC,0.00,WeatherDisplay:10.34,2013-04-01 17:45:00,
2013-04-01 13:50:00,49.5,30.0,29.66,SW,219,8.0,12.0,47,0.00,OVC,OVC,0.00,WeatherDisplay:10.34,2013-04-01 17:50:00,
2013-04-01 13:55:00,49.6,30.2,29.66,West,268,7.0,12.0,47,0.00,OVC,OVC,0.00,WeatherDisplay:10.34,2013-04-01 17:55:00,
2013-04-01 14:00:00,49.8,30.4,29.66,SW,224,4.0,7.0,47,0.00,OVC,OVC,0.00,WeatherDisplay:10.34,2013-04-01 18:00:00,
2013-04-01 14:05:00,50.0,30.0,29.66,WSW,237,6.0,14.0,46,0.00,BKN,BKN,0.00,WeatherDisplay:10.34,2013-04-01 18:05:00,
2013-04-01 14:11:00,50.2,30.2,29.66,SW,228,6.0,9.0,46,0.00,BKN,BKN,0.00,WeatherDisplay:10.34,2013-04-01 18:11:00,
2013-04-01 14:17:00,50.2,30.2,29.66,WSW,239,4.0,7.0,46,0.00,BKN,BKN,0.00,WeatherDisplay:10.34,2013-04-01 18:17:00,
2013-04-01 14:23:00,50.5,30.0,29.66,North,11,4.0,8.0,45,0.00,BKN,BKN,0.00,WeatherDisplay:10.34,2013-04-01 18:23:00,
2013-04-01 14:28:00,50.9,30.3,29.66,SSE,166,4.0,8.0,45,0.00,BKN,BKN,0.00,WeatherDisplay:10.34,2013-04-01 18:28:00,
2013-04-01 14:33:00,50.9,29.7,29.66,SSW,197,5.0,6.0,44,0.00,BKN,BKN,0.00,WeatherDisplay:10.34,2013-04-01 18:33:00,
2013-04-01 14:39:00,50.4,29.8,29.66,WSW,245,4.0,9.0,45,0.00,BKN,BKN,0.00,WeatherDisplay:10.34,2013-04-01 18:39:00,
2013-04-01 14:45:00,50.0,29.5,29.66,SW,223,4.0,8.0,45,0.00,BKN,BKN,0.00,WeatherDisplay:10.34,2013-04-01 18:45:00,
2013-04-01 14:50:00,49.8,29.8,29.66,SSW,194,5.0,9.0,46,0.00,BKN,BKN,0.00,WeatherDisplay:10.34,2013-04-01 18:50:00,
2013-04-01 14:55:00,49.6,29.7,29.66,South,172,0.0,6.0,46,0.00,BKN,BKN,0.00,WeatherDisplay:10.34,2013-04-01 18:55:00,
2013-04-01 15:00:00,49.6,30.2,29.66,West,264,0.0,0.0,47,0.00,BKN,BKN,0.00,WeatherDisplay:10.34,2013-04-01 19:00:00,
2013-04-01 15:06:00,49.1,29.7,29.63,West,273,4.0,8.0,47,0.00,BKN,BKN,0.00,WeatherDisplay:10.34,2013-04-01 19:06:00,
2013-04-01 15:11:00,48.7,29.9,29.63,NW,322,0.0,3.0,48,0.00,BKN,BKN,0.00,WeatherDisplay:10.34,2013-04-01 19:11:00,
2013-04-01 15:16:00,48.4,29.6,29.63,West,279,0.0,2.0,48,0.00,BKN,BKN,0.00,WeatherDisplay:10.34,2013-04-01 19:16:00,
2013-04-01 15:21:00,47.3,33.3,29.63,NNW,338,9.0,18.0,58,0.00,BKN,BKN,0.00,WeatherDisplay:10.34,2013-04-01 19:21:00,
2013-04-01 15:27:00,45.5,33.6,29.63,NNW,346,5.0,8.0,63,0.00,BKN,BKN,0.00,WeatherDisplay:10.34,2013-04-01 19:27:00,
2013-04-01 15:32:00,44.8,34.9,29.67,NW,308,4.0,8.0,68,0.00,BKN,BKN,0.00,WeatherDisplay:10.34,2013-04-01 19:32:00,
2013-04-01 15:37:00,44.1,35.6,29.67,NNW,328,6.0,12.0,72,0.00,BKN,BKN,0.00,WeatherDisplay:10.34,2013-04-01 19:37:00,
2013-04-01 15:42:00,43.7,36.3,29.67,WNW,282,0.0,5.0,75,0.00,BKN,BKN,0.00,WeatherDisplay:10.34,2013-04-01 19:42:00,
2013-04-01 15:48:00,43.3,36.3,29.67,WNW,292,0.0,6.0,76,0.00,BKN,BKN,0.00,WeatherDisplay:10.34,2013-04-01 19:48:00,
2013-04-01 15:53:00,43.3,36.6,29.67,WSW,257,4.0,7.0,77,0.00,BKN,BKN,0.00,WeatherDisplay:10.34,2013-04-01 19:53:00,
2013-04-01 15:58:00,43.2,36.4,29.67,WSW,247,3.0,9.0,77,0.00,BKN,BKN,0.00,WeatherDisplay:10.34,2013-04-01 19:58:00,
2013-04-01 16:03:00,43.2,36.8,29.67,West,274,4.0,12.0,78,0.00,OVC,OVC,0.00,WeatherDisplay:10.34,2013-04-01 20:03:00,
2013-04-01 16:08:00,42.8,36.7,29.67,WSW,251,5.0,7.0,79,0.00,OVC,OVC,0.00,WeatherDisplay:10.34,2013-04-01 20:08:00,
2013-04-01 16:13:00,42.8,36.7,29.67,WSW,255,4.0,14.0,79,0.00,OVC,OVC,0.00,WeatherDisplay:10.34,2013-04-01 20:13:00,
2013-04-01 16:18:00,42.8,37.1,29.67,SW,231,6.0,13.0,80,0.00,OVC,OVC,0.00,WeatherDisplay:10.34,2013-04-01 20:18:00,
2013-04-01 16:23:00,42.8,37.4,29.67,West,279,4.0,8.0,81,0.00,OVC,OVC,0.00,WeatherDisplay:10.34,2013-04-01 20:23:00,
2013-04-01 16:28:00,42.6,37.2,29.67,SW,230,5.0,9.0,81,0.00,OVC,OVC,0.00,WeatherDisplay:10.34,2013-04-01 20:28:00,
2013-04-01 16:33:00,42.6,37.5,29.70,WSW,256,4.0,7.0,82,0.00,OVC,OVC,0.00,WeatherDisplay:10.34,2013-04-01 20:33:00,
2013-04-01 16:38:00,42.6,37.5,29.70,West,272,3.0,13.0,82,0.00,OVC,OVC,0.00,WeatherDisplay:10.34,2013-04-01 20:38:00,
2013-04-01 16:43:00,42.4,37.3,29.70,SSW,200,0.0,9.0,82,0.00,OVC,OVC,0.00,WeatherDisplay:10.34,2013-04-01 20:43:00,
2013-04-01 16:48:00,42.4,37.6,29.70,West,264,7.0,13.0,83,0.00,OVC,OVC,0.00,WeatherDisplay:10.34,2013-04-01 20:48:00,
2013-04-01 16:53:00,42.3,37.5,29.70,West,274,7.0,14.0,83,0.00,OVC,OVC,0.00,WeatherDisplay:10.34,2013-04-01 20:53:00,
2013-04-01 16:58:00,42.3,37.5,29.70,WNW,288,3.0,9.0,83,0.00,OVC,OVC,0.00,WeatherDisplay:10.34,2013-04-01 20:58:00,
2013-04-01 17:03:00,42.1,37.6,29.70,NW,311,6.0,14.0,84,0.00,OVC,OVC,0.00,WeatherDisplay:10.34,2013-04-01 21:03:00,
2013-04-01 17:08:00,41.5,36.8,29.70,North,9,7.0,12.0,83,0.00,OVC,OVC,0.00,WeatherDisplay:10.34,2013-04-01 21:08:00,
2013-04-01 17:13:00,41.2,35.8,29.70,North,0,4.0,9.0,81,0.00,OVC,OVC,0.00,WeatherDisplay:10.34,2013-04-01 21:13:00,
2013-04-01 17:18:00,40.6,34.0,29.70,North,351,5.0,10.0,77,0.00,OVC,OVC,0.00,WeatherDisplay:10.34,2013-04-01 21:18:00,
2013-04-01 17:23:00,40.5,33.5,29.71,NW,320,5.0,10.0,76,0.00,OVC,OVC,0.00,WeatherDisplay:10.34,2013-04-01 21:23:00,
2013-04-01 17:28:00,40.5,33.5,29.71,East,92,4.0,4.0,76,0.00,OVC,OVC,0.00,WeatherDisplay:10.34,2013-04-01 21:28:00,
2013-04-01 17:33:00,40.3,33.0,29.71,West,281,4.0,9.0,75,0.00,OVC,OVC,0.00,WeatherDisplay:10.34,2013-04-01 21:33:00,
2013-04-01 17:38:00,39.9,32.6,29.71,North,0,5.0,13.0,75,0.00,OVC,OVC,0.00,WeatherDisplay:10.34,2013-04-01 21:38:00,
2013-04-01 17:43:00,39.9,32.3,29.71,NW,319,9.0,14.0,74,0.00,OVC,OVC,0.00,WeatherDisplay:10.34,2013-04-01 21:43:00,
2013-04-01 17:48:00,39.7,31.8,29.74,West,278,4.0,12.0,73,0.00,OVC,OVC,0.00,WeatherDisplay:10.34,2013-04-01 21:48:00,
2013-04-01 17:53:00,39.6,31.3,29.74,WNW,296,7.0,12.0,72,0.00,OVC,OVC,0.00,WeatherDisplay:10.34,2013-04-01 21:53:00,
2013-04-01 17:58:00,39.4,30.8,29.74,North,8,5.0,9.0,71,0.00,OVC,OVC,0.00,WeatherDisplay:10.34,2013-04-01 21:58:00,
2013-04-01 18:03:00,38.8,29.2,29.74,North,351,7.0,14.0,68,0.00,OVC,OVC,0.00,WeatherDisplay:10.34,2013-04-01 22:03:00,
2013-04-01 18:08:00,38.8,28.4,29.74,North,5,5.0,12.0,66,0.00,OVC,OVC,0.00,WeatherDisplay:10.34,2013-04-01 22:08:00,
2013-04-01 18:13:00,38.7,28.3,29.74,WSW,250,5.0,16.0,66,0.00,OVC,OVC,0.00,WeatherDisplay:10.34,2013-04-01 22:13:00,
2013-04-01 18:18:00,38.5,27.4,29.74,NNE,15,6.0,15.0,64,0.00,OVC,OVC,0.00,WeatherDisplay:10.34,2013-04-01 22:18:00,
2013-04-01 18:23:00,38.5,27.4,29.74,South,174,4.0,7.0,64,0.00,OVC,OVC,0.00,WeatherDisplay:10.34,2013-04-01 22:23:00,
2013-04-01 18:28:00,38.3,27.2,29.74,South,182,6.0,8.0,64,0.00,OVC,OVC,0.00,WeatherDisplay:10.34,2013-04-01 22:28:00,
2013-04-01 18:33:00,38.1,27.0,29.74,NNW,341,3.0,3.0,64,0.00,OVC,OVC,0.00,WeatherDisplay:10.34,2013-04-01 22:33:00,
2013-04-01 18:38:00,37.9,26.8,29.74,West,270,4.0,6.0,64,0.00,OVC,OVC,0.00,WeatherDisplay:10.34,2013-04-01 22:38:00,
2013-04-01 18:43:00,37.9,27.2,29.74,NW,308,6.0,12.0,65,0.00,OVC,OVC,0.00,WeatherDisplay:10.34,2013-04-01 22:43:00,
2013-04-01 18:48:00,37.9,26.5,29.74,ESE,118,4.0,5.0,63,0.00,OVC,OVC,0.00,WeatherDisplay:10.34,2013-04-01 22:48:00,
2013-04-01 18:53:00,37.8,25.9,29.74,NNW,334,4.0,6.0,62,0.00,OVC,OVC,0.00,WeatherDisplay:10.34,2013-04-01 22:53:00,
2013-04-01 18:58:00,37.4,24.4,29.74,NW,304,8.0,12.0,59,0.00,OVC,OVC,0.00,WeatherDisplay:10.34,2013-04-01 22:58:00,
2013-04-01 19:04:00,37.0,22.4,29.74,NNW,344,6.0,9.0,55,0.00,BKN,BKN,0.00,WeatherDisplay:10.34,2013-04-01 23:04:00,
2013-04-01 19:09:00,36.9,20.9,29.74,NNW,345,5.0,8.0,52,0.00,BKN,BKN,0.00,WeatherDisplay:10.34,2013-04-01 23:09:00,
2013-04-01 19:14:00,36.7,19.8,29.74,NNW,344,7.0,9.0,50,0.00,BKN,BKN,0.00,WeatherDisplay:10.34,2013-04-01 23:14:00,
2013-04-01 19:19:00,36.3,19.4,29.77,West,269,4.0,8.0,50,0.00,BKN,BKN,0.00,WeatherDisplay:10.34,2013-04-01 23:19:00,
2013-04-01 19:24:00,36.1,18.3,29.77,WNW,296,7.0,12.0,48,0.00,BKN,BKN,0.00,WeatherDisplay:10.34,2013-04-01 23:24:00,
2013-04-01 19:29:00,36.0,17.2,29.77,North,351,6.0,12.0,46,0.00,BKN,BKN,0.00,WeatherDisplay:10.34,2013-04-01 23:29:00,
2013-04-01 19:34:00,35.6,16.3,29.77,NW,318,5.0,9.0,45,0.00,BKN,BKN,0.00,WeatherDisplay:10.34,2013-04-01 23:34:00,
2013-04-01 19:39:00,35.4,15.1,29.77,NNW,340,6.0,10.0,43,0.00,BKN,BKN,0.00,WeatherDisplay:10.34,2013-04-01 23:39:00,
2013-04-01 19:44:00,35.2,14.4,29.77,WNW,293,6.0,9.0,42,0.00,BKN,BKN,0.00,WeatherDisplay:10.34,2013-04-01 23:44:00,
2013-04-01 19:49:00,35.1,14.2,29.77,NNE,19,3.0,10.0,42,0.00,BKN,BKN,0.00,WeatherDisplay:10.34,2013-04-01 23:49:00,
2013-04-01 19:54:00,35.1,14.2,29.77,NNW,347,5.0,12.0,42,0.00,BKN,BKN,0.00,WeatherDisplay:10.34,2013-04-01 23:54:00,
2013-04-01 19:59:00,34.9,13.5,29.77,WSW,254,6.0,10.0,41,0.00,BKN,BKN,0.00,WeatherDisplay:10.34,2013-04-01 23:59:00,
2013-04-01 20:04:00,34.7,13.4,29.80,NW,306,6.0,15.0,41,0.00,CLR,CLR,0.00,WeatherDisplay:10.34,2013-04-02 00:04:00,
2013-04-01 20:09:00,34.7,13.4,29.80,WNW,288,4.0,7.0,41,0.00,CLR,CLR,0.00,WeatherDisplay:10.34,2013-04-02 00:09:00,
2013-04-01 20:14:00,34.5,13.2,29.80,North,0,4.0,9.0,41,0.00,CLR,CLR,0.00,WeatherDisplay:10.34,2013-04-02 00:14:00,
2013-04-01 20:19:00,34.3,12.5,29.80,NNE,12,4.0,7.0,40,0.00,CLR,CLR,0.00,WeatherDisplay:10.34,2013-04-02 00:19:00,
2013-04-01 20:24:00,34.3,13.0,29.80,NNE,14,0.0,2.0,41,0.00,CLR,CLR,0.00,WeatherDisplay:10.34,2013-04-02 00:24:00,
2013-04-01 20:29:00,34.3,13.0,29.80,SW,236,4.0,5.0,41,0.00,CLR,CLR,0.00,WeatherDisplay:10.34,2013-04-02 00:29:00,
2013-04-01 20:34:00,34.2,12.9,29.80,North,351,5.0,9.0,41,0.00,CLR,CLR,0.00,WeatherDisplay:10.34,2013-04-02 00:34:00,
2013-04-01 20:39:00,34.0,12.7,29.80,North,11,5.0,7.0,41,0.00,CLR,CLR,0.00,WeatherDisplay:10.34,2013-04-02 00:39:00,
2013-04-01 20:45:00,33.8,12.0,29.80,North,351,5.0,9.0,40,0.00,CLR,CLR,0.00,WeatherDisplay:10.34,2013-04-02 00:45:00,
2013-04-01 20:50:00,33.8,12.0,29.80,SW,232,4.0,8.0,40,0.00,CLR,CLR,0.00,WeatherDisplay:10.34,2013-04-02 00:50:00,
2013-04-01 20:55:00,33.6,11.8,29.80,NNE,22,5.0,8.0,40,0.00,CLR,CLR,0.00,WeatherDisplay:10.34,2013-04-02 00:55:00,
2013-04-01 21:00:00,33.4,11.1,29.83,WSW,237,4.0,7.0,39,0.00,CLR,CLR,0.00,WeatherDisplay:10.34,2013-04-02 01:00:00,
2013-04-01 21:06:00,33.3,10.4,29.83,WSW,251,4.0,9.0,38,0.00,CLR,CLR,0.00,WeatherDisplay:10.34,2013-04-02 01:06:00,
2013-04-01 21:11:00,32.9,9.4,29.83,NW,305,3.0,10.0,37,0.00,CLR,CLR,0.00,WeatherDisplay:10.34,2013-04-02 01:11:00,
2013-04-01 21:17:00,32.7,9.3,29.83,WNW,299,7.0,15.0,37,0.00,CLR,CLR,0.00,WeatherDisplay:10.34,2013-04-02 01:17:00,
2013-04-01 21:22:00,32.5,9.1,29.83,SSW,204,4.0,6.0,37,0.00,CLR,CLR,0.00,WeatherDisplay:10.34,2013-04-02 01:22:00,
2013-04-01 21:27:00,32.5,9.1,29.83,NNE,29,3.0,6.0,37,0.00,CLR,CLR,0.00,WeatherDisplay:10.34,2013-04-02 01:27:00,
2013-04-01 21:32:00,32.2,8.8,29.83,WSW,247,4.0,7.0,37,0.00,CLR,CLR,0.00,WeatherDisplay:10.34,2013-04-02 01:32:00,
2013-04-01 21:37:00,32.2,8.8,29.83,North,351,6.0,9.0,37,0.00,CLR,CLR,0.00,WeatherDisplay:10.34,2013-04-02 01:37:00,
2013-04-01 21:42:00,32.2,8.8,29.83,SSE,154,4.0,7.0,37,0.00,CLR,CLR,0.00,WeatherDisplay:10.34,2013-04-02 01:42:00,
2013-04-01 21:47:00,31.8,8.5,29.83,SW,225,7.0,13.0,37,0.00,CLR,CLR,0.00,WeatherDisplay:10.34,2013-04-02 01:47:00,
2013-04-01 21:52:00,31.6,8.3,29.83,North,351,0.0,15.0,37,0.00,CLR,CLR,0.00,WeatherDisplay:10.34,2013-04-02 01:52:00,
2013-04-01 21:57:00,31.5,8.1,29.83,North,3,4.0,9.0,37,0.00,CLR,CLR,0.00,WeatherDisplay:10.34,2013-04-02 01:57:00,
2013-04-01 22:02:00,31.5,8.1,29.83,SSW,192,6.0,8.0,37,0.00,CLR,CLR,0.00,WeatherDisplay:10.34,2013-04-02 02:02:00,
2013-04-01 22:07:00,31.3,8.0,29.83,NNW,342,6.0,8.0,37,0.00,CLR,CLR,0.00,WeatherDisplay:10.34,2013-04-02 02:07:00,
2013-04-01 22:12:00,31.3,8.6,29.83,WNW,302,7.0,12.0,38,0.00,CLR,CLR,0.00,WeatherDisplay:10.34,2013-04-02 02:12:00,
2013-04-01 22:17:00,31.1,8.4,29.86,NE,39,4.0,9.0,38,0.00,CLR,CLR,0.00,WeatherDisplay:10.34,2013-04-02 02:17:00,
2013-04-01 22:22:00,30.7,8.1,29.86,South,169,4.0,5.0,38,0.00,CLR,CLR,0.00,WeatherDisplay:10.34,2013-04-02 02:22:00,
2013-04-01 22:28:00,30.6,7.9,29.86,NE,37,4.0,7.0,38,0.00,CLR,CLR,0.00,WeatherDisplay:10.34,2013-04-02 02:28:00,
2013-04-01 22:33:00,30.6,8.5,29.86,NNE,17,6.0,10.0,39,0.00,CLR,CLR,0.00,WeatherDisplay:10.34,2013-04-02 02:33:00,
2013-04-01 22:39:00,30.4,7.8,29.86,WSW,248,4.0,6.0,38,0.00,CLR,CLR,0.00,WeatherDisplay:10.34,2013-04-02 02:39:00,
2013-04-01 22:44:00,30.4,8.3,29.86,SW,226,5.0,10.0,39,0.00,CLR,CLR,0.00,WeatherDisplay:10.34,2013-04-02 02:44:00,
2013-04-01 22:49:00,30.4,8.3,29.86,North,5,4.0,10.0,39,0.00,CLR,CLR,0.00,WeatherDisplay:10.34,2013-04-02 02:49:00,
2013-04-01 22:54:00,30.4,8.3,29.86,North,4,4.0,9.0,39,0.00,CLR,CLR,0.00,WeatherDisplay:10.34,2013-04-02 02:54:00,
2013-04-01 22:59:00,30.4,8.3,29.86,NNW,343,6.0,10.0,39,0.00,CLR,CLR,0.00,WeatherDisplay:10.34,2013-04-02 02:59:00,
2013-04-01 23:04:00,30.4,8.9,29.86,North,351,3.0,7.0,40,0.00,CLR,CLR,0.00,WeatherDisplay:10.34,2013-04-02 03:04:00,
2013-04-01 23:10:00,30.4,8.9,29.86,North,11,4.0,9.0,40,0.00,CLR,CLR,0.00,WeatherDisplay:10.34,2013-04-02 03:10:00,
2013-04-01 23:15:00,30.2,9.3,29.86,WNW,289,5.0,8.0,41,0.00,CLR,CLR,0.00,WeatherDisplay:10.34,2013-04-02 03:15:00,
2013-04-01 23:20:00,30.2,9.3,29.86,ENE,62,5.0,9.0,41,0.00,CLR,CLR,0.00,WeatherDisplay:10.34,2013-04-02 03:20:00,
2013-04-01 23:25:00,30.0,9.1,29.86,WNW,296,4.0,8.0,41,0.00,CLR,CLR,0.00,WeatherDisplay:10.34,2013-04-02 03:25:00,
2013-04-01 23:31:00,30.2,9.3,29.86,SE,145,3.0,5.0,41,0.00,CLR,CLR,0.00,WeatherDisplay:10.34,2013-04-02 03:31:00,
2013-04-01 23:36:00,30.0,9.1,29.86,SSE,155,0.0,5.0,41,0.00,CLR,CLR,0.00,WeatherDisplay:10.34,2013-04-02 03:36:00,
2013-04-01 23:41:00,30.0,9.1,29.86,WNW,295,4.0,8.0,41,0.00,CLR,CLR,0.00,WeatherDisplay:10.34,2013-04-02 03:41:00,
2013-04-01 23:47:00,30.0,9.1,29.86,NNW,327,5.0,7.0,41,0.00,CLR,CLR,0.00,WeatherDisplay:10.34,2013-04-02 03:47:00,
2013-04-01 23:52:00,30.0,9.1,29.86,North,351,0.0,0.0,41,0.00,CLR,CLR,0.00,WeatherDisplay:10.34,2013-04-02 03:52:00,
2013-04-01 23:57:00,29.7,8.8,29.86,West,278,0.0,0.0,41,0.00,CLR,CLR,0.00,WeatherDisplay:10.34,2013-04-02 03:57:00,